Regional Weather Roundup
Issued by NWS State College, PA

Home | Current Version | Previous Version | Text Only | Print | Product List | Glossary On
Versions: 1 2 3 4 5 6 7 8 9 10 11 12 13 14 15 16 17 18 19 20 21 22 23 24 25 26 27 28 29 30 31 32 33 34 35 36 37 38 39 40 41 42 43 44 45 46 47 48 49 50
000
ASUS41 KCTP 240203
RWRCTP

REGIONAL WEATHER ROUNDUP
NATIONAL WEATHER SERVICE STATE COLLEGE PA
1000 PM EDT SUN APR 23 2017

Note: "fair" indicates few or no clouds below 12,000 feet with no
significant weather and/or obstructions to visibility.

* = STATION THAT DOES NOT REPORT PRECIPITATION /E.G. RAIN...SNOW...ETC/
    THUNDER OR FOG.

PAZ002>004-007>009-013>016-020>023-029>032-240300-
WESTERN PENNSYLVANIA

CITY           SKY/WX    TMP DP  RH WIND       PRES   REMARKS
ERIE           CLOUDY    48  33  56 CALM      30.07S
MEADVILLE      CLOUDY    51  31  46 NE6       30.07R
FRANKLIN*      CLOUDY    54  32  43 N7        30.08R
NEW CASTLE     FAIR      57  38  48 NE6       30.06R
BEAVER COUNTY  NOT AVBL
BUTLER*        PTCLDY    54  37  54 NE5       30.06R
PITTSBURGH INT CLOUDY    62  30  29 CALM      30.04R
PITTSBURGH     CLOUDY    60  25  26 SE6       30.04R
INDIANA*       CLEAR     57  32  38 SE5       30.08S
LATROBE        CLEAR     55  28  35 CALM      30.06R
WASHINGTON CO* CLOUDY    48  39  71 CALM      30.05R
$$

PAZ004>006-010>012-017>019-024>028-033>037-041-042-045-046-049>053-240300-
CENTRAL PENNSYLVANIA

CITY           SKY/WX    TMP DP  RH WIND       PRES   REMARKS
BRADFORD       PTCLDY    55  32  41 NE3       30.08R
DUBOIS         CLOUDY    58  26  29 S3        30.06R
CLEARFIELD     CLOUDY    58  28  32 CALM      30.07R
JOHNSTOWN      PTCLDY    50  31  48 SE7       30.07R
ALTOONA        MOCLDY    52  38  58 CALM      30.09R
STATE COLLEGE  NOT AVBL
WILLIAMSPORT   PTCLDY    55  38  52 N6        30.05R
SELINSGROVE    PTCLDY    50  42  74 CALM      30.09R
FT INDIANTOWN  PTCLDY    51  42  71 CALM      30.10R
CAPITAL CITY   PTCLDY    58  42  55 CALM      30.10R
HARRISBURG     CLOUDY    57  47  69 S5        30.09R
YORK           PTCLDY    54  44  69 CALM      30.11R
$$

PAZ038>040-043-044-047-048-054-055-060>062-067>071-240300-
EASTERN PENNSYLVANIA

CITY           SKY/WX    TMP DP  RH WIND       PRES   REMARKS
SCRANTON       PTCLDY    59  35  40 CALM      30.07R
MOUNT POCONO   PTCLDY    47  37  68 CALM      30.10R
ALLENTOWN      CLOUDY    59  38  45 S5        30.09R
QUAKERTOWN*    CLOUDY    55  41  58 S3        30.12R
READING        PTCLDY    56  45  66 S5        30.10R
LANCASTER      CLOUDY    55  46  71 CALM      30.11R
COATESVILLE    CLOUDY    52  48  87 SE5       30.13R
POTTSTOWN      CLOUDY    55  45  68 S7        30.13R
BLUE BELL      CLOUDY    52  45  76 CALM      30.13S
DOYLESTOWN     CLOUDY    55  47  74 S5        30.11R
WILLOW GROVE   NOT AVBL
NORTH PHILA    PTCLDY    55  45  68 SE3       30.14R
PHILADELPHIA   MOCLDY    53  45  74 S5        30.14R
$$




USA.gov is the U.S. government's official web portal to all federal, state and local government web resources and services.